Imperial, CA

3:15 AM PDT on March 28, 2017 (GMT -0700)
Imperial County

Weather History for KIPL - April, 2014

Change the Weather History Date:

Thursday, April 3, 2014

  Actual Average Record
Temperature  
Mean Temperature 60 °F -  
Max Temperature 77 °F 81 °F 101 °F (1961)
Min Temperature 44 °F 52 °F 41 °F (1956)
Degree Days  
Heating Degree Days 6    
Growing Degree Days 10 (Base 50)    
Moisture  
Dew Point 30 °F    
Average Humidity 36    
Maximum Humidity 65    
Minimum Humidity 13    
Precipitation  
Precipitation 0.00 in - - ()
Sea Level Pressure  
Sea Level Pressure 30.01 in    
Wind  
Wind Speed 5 mph (WSW)    
Max Wind Speed 8 mph    
Max Gust Speed -    
Visibility 10 miles    
Events      
Averages and records for this station are not official NWS values.
T = Trace of Precipitation, MM = Missing Value Source: NWS Daily Summary

Daily Weather History Graph

Daily Weather History Graph

Search for Another Location

Airport or City:

Trip Planner

Search our weather history database for the weather conditions in past years. The results will help you decide how hot, cold, wet, or windy it might be!

Date:

Astronomy

Apr. 03, 2014 Rise Set
Actual Time 6:27 AM PDT 7:03 PM PDT
Civil Twilight 6:02 AM PDT 7:28 PM PDT
Nautical Twilight 5:33 AM PDT 7:58 PM PDT
Astronomical Twilight 5:03 AM PDT 8:28 PM PDT
Moon 9:10 AM PDT (4/3) 11:16 PM PDT (4/3)
Length of Visible Light 13h 26m
Length of Day
12h 36m
Waxing Crescent, 18% of the Moon is Illuminated
Apr 3
Waxing Crescent
Apr 7
First Quarter
Apr 15
Full
Apr 22
Last Quarter
Apr 28
New

Hourly Weather History & Observations

Time (PDT) Temp. Windchill Dew Point Humidity Pressure Visibility Wind Dir Wind Speed Gust Speed Precip Events Conditions
12:53 AM 51.1 °F - 34.0 °F 52% 29.99 in 10.0 mi SW 6.9 mph - N/A   Clear
1:53 AM 48.0 °F - 34.0 °F 58% 30.00 in 10.0 mi West 8.1 mph - N/A   Clear
2:53 AM 46.9 °F - 34.0 °F 61% 30.00 in 10.0 mi WNW 5.8 mph - N/A   Clear
3:53 AM 48.0 °F - 32.0 °F 54% 30.00 in 10.0 mi West 6.9 mph - N/A   Clear
4:53 AM 46.0 °F - 32.0 °F 58% 30.01 in 10.0 mi Calm Calm - N/A   Clear
5:53 AM 45.0 °F - 33.1 °F 63% 30.03 in 10.0 mi Calm Calm - N/A   Clear
6:53 AM 44.1 °F 41.5 °F 33.1 °F 65% 30.04 in 10.0 mi West 4.6 mph - N/A   Clear
7:53 AM 50.0 °F - 35.1 °F 57% 30.07 in 10.0 mi Calm Calm - N/A   Clear
8:53 AM 59.0 °F - 36.0 °F 42% 30.08 in 10.0 mi Calm Calm - N/A   Clear
9:53 AM 64.0 °F - 37.9 °F 38% 30.09 in 10.0 mi NNW 3.5 mph - N/A   Clear
10:53 AM 66.0 °F - 37.0 °F 34% 30.09 in 10.0 mi Calm Calm - N/A   Clear
11:53 AM 71.1 °F - 33.1 °F 25% 30.08 in 10.0 mi Variable 5.8 mph - N/A   Clear
12:53 PM 73.0 °F - 30.9 °F 21% 30.06 in 10.0 mi WNW 8.1 mph - N/A   Clear
1:53 PM 73.9 °F - 28.0 °F 18% 30.04 in 10.0 mi North - - N/A   Clear
2:53 PM 75.0 °F - 24.1 °F 15% 30.02 in 10.0 mi NNW 6.9 mph - N/A   Clear
3:53 PM 75.0 °F - 21.9 °F 14% 29.99 in 10.0 mi SSE 3.5 mph - N/A   Clear
4:53 PM 75.0 °F - 21.9 °F 14% 29.97 in 10.0 mi West 4.6 mph - N/A   Clear
5:53 PM 75.0 °F - 19.9 °F 13% 29.96 in 10.0 mi Calm Calm - N/A   Clear
6:53 PM 73.0 °F - 23.0 °F 15% 29.95 in 10.0 mi SSW 4.6 mph - N/A   Clear
8:53 PM 63.0 °F - 30.0 °F 29% 29.96 in 10.0 mi South 3.5 mph - N/A   Clear
9:53 PM 64.9 °F - 25.0 °F 22% 29.97 in 10.0 mi South 3.5 mph - N/A   Clear
10:53 PM 60.1 °F - 30.0 °F 32% 29.97 in 10.0 mi SW 6.9 mph - N/A   Clear
11:53 PM 61.0 °F - 28.9 °F 30% 29.97 in 10.0 mi SW 6.9 mph - N/A   Clear